When you browse on this site, cookies collect data to enhance your experience and personalize the content and advertising you see.
Visit our Privacy Policy to learn more. By continuing to use the site, you agree to this use of cookies and data.

Previsão horária em Debreczyn

Hoje, 5 Agosto, Quarta-feira

Tempo Temperatura Precipitação Vento Pressão Humidade
00:00 +20°C° 0.9 mm 3 m/s 747 mmHg 88%
01:00 +20°C° 0 mm 3 m/s 747 mmHg 89%
02:00 +20°C° 0.1 mm 4 m/s 747 mmHg 91%
03:00 +20°C° 0.1 mm 4 m/s 747 mmHg 92%
04:00 +19°C° 0.1 mm 5 m/s 747 mmHg 94%
05:00 +20°C° 0 mm 5 m/s 747 mmHg 92%
06:00 +20°C° 0 mm 5 m/s 747 mmHg 90%
07:00 +21°C° 0 mm 5 m/s 747 mmHg 88%
08:00 +22°C° 0 mm 5 m/s 748 mmHg 83%
09:00 +24°C° 0 mm 6 m/s 748 mmHg 78%
10:00 +26°C° 0 mm 6 m/s 748 mmHg 73%
11:00 +27°C° 0 mm 6 m/s 748 mmHg 70%
12:00 +28°C° 0 mm 6 m/s 748 mmHg 67%
13:00 +29°C° 0 mm 6 m/s 748 mmHg 65%
14:00 +29°C° 0.1 mm 6 m/s 748 mmHg 66%
15:00 +28°C° 0.1 mm 7 m/s 748 mmHg 66%
16:00 +28°C° 0.1 mm 7 m/s 748 mmHg 67%
17:00 +27°C° 1 mm 7 m/s 748 mmHg 72%
18:00 +24°C° 1 mm 7 m/s 748 mmHg 77%
19:00 +22°C° 1 mm 7 m/s 749 mmHg 82%
20:00 +22°C° 0.7 mm 6 m/s 749 mmHg 84%
21:00 +21°C° 0.7 mm 6 m/s 750 mmHg 87%
22:00 +20°C° 0.7 mm 6 m/s 750 mmHg 89%
23:00 +20°C° 0.1 mm 6 m/s 750 mmHg 87%

Amanhã, 6 Agosto, Quinta-feira

Tempo Temperatura Precipitação Vento Pressão Humidade
00:00 +20°C° 0.1 mm 5 m/s 750 mmHg 86%
01:00 +19°C° 0.1 mm 5 m/s 750 mmHg 85%
02:00 +19°C° 0 mm 5 m/s 750 mmHg 86%
03:00 +19°C° 0 mm 5 m/s 750 mmHg 87%
04:00 +19°C° 0 mm 5 m/s 751 mmHg 87%
05:00 +20°C° 0 mm 5 m/s 751 mmHg 82%
06:00 +21°C° 0 mm 5 m/s 751 mmHg 77%
07:00 +22°C° 0 mm 5 m/s 751 mmHg 73%
08:00 +25°C° 0 mm 5 m/s 752 mmHg 65%
09:00 +27°C° 0 mm 5 m/s 752 mmHg 58%
10:00 +29°C° 0 mm 5 m/s 752 mmHg 51%
11:00 +30°C° 0 mm 5 m/s 752 mmHg 48%
12:00 +30°C° 0 mm 6 m/s 752 mmHg 45%
13:00 +32°C° 0 mm 6 m/s 752 mmHg 42%
14:00 +32°C° 0 mm 5 m/s 752 mmHg 44%
15:00 +32°C° 0 mm 4 m/s 752 mmHg 46%
16:00 +31°C° 0 mm 3 m/s 752 mmHg 48%
17:00 +30°C° 0 mm 3 m/s 752 mmHg 51%
18:00 +28°C° 0 mm 3 m/s 752 mmHg 54%
19:00 +26°C° 0 mm 2 m/s 752 mmHg 57%
20:00 +25°C° 0 mm 3 m/s 753 mmHg 59%
21:00 +25°C° 0 mm 3 m/s 753 mmHg 61%
22:00 +24°C° 0 mm 3 m/s 753 mmHg 63%
23:00 +24°C° 0 mm 3 m/s 753 mmHg 62%

Depois de amanhã, 7 Agosto, Sexta-feira

Tempo Temperatura Precipitação Vento Pressão Humidade
00:00 +22°C° 0 mm 3 m/s 753 mmHg 62%
01:00 +22°C° 0 mm 3 m/s 754 mmHg 62%
02:00 +21°C° 0 mm 4 m/s 754 mmHg 64%
03:00 +20°C° 0 mm 4 m/s 754 mmHg 67%
04:00 +20°C° 0 mm 4 m/s 754 mmHg 69%
05:00 +21°C° 0 mm 4 m/s 754 mmHg 69%
06:00 +22°C° 0 mm 4 m/s 754 mmHg 68%
07:00 +23°C° 0 mm 4 m/s 754 mmHg 67%
08:00 +26°C° 0 mm 4 m/s 754 mmHg 63%
09:00 +28°C° 0 mm 4 m/s 754 mmHg 58%
10:00 +29°C° 0 mm 4 m/s 754 mmHg 53%
11:00 +30°C° 0 mm 4 m/s 754 mmHg 50%
12:00 +32°C° 0 mm 4 m/s 754 mmHg 47%
13:00 +33°C° 0 mm 4 m/s 753 mmHg 44%
14:00 +33°C° 0 mm 4 m/s 753 mmHg 45%
15:00 +32°C° 0 mm 4 m/s 753 mmHg 46%
16:00 +31°C° 0 mm 3 m/s 753 mmHg 47%
17:00 +30°C° 0 mm 3 m/s 753 mmHg 51%
18:00 +28°C° 0 mm 3 m/s 753 mmHg 56%
19:00 +26°C° 0 mm 2 m/s 753 mmHg 60%
20:00 +25°C° 0 mm 3 m/s 753 mmHg 61%
21:00 +25°C° 0 mm 3 m/s 753 mmHg 61%
22:00 +24°C° 0 mm 3 m/s 753 mmHg 62%
23:00 +24°C° 0 mm 3 m/s 753 mmHg 65%

8 Agosto, Sábado

Tempo Temperatura Precipitação Vento Pressão Humidade
00:00 +22°C° 0 mm 3 m/s 753 mmHg 68%
01:00 +22°C° 0 mm 3 m/s 753 mmHg 71%
02:00 +22°C° 0 mm 3 m/s 753 mmHg 72%
03:00 +21°C° 0 mm 3 m/s 753 mmHg 73%
04:00 +21°C° 0 mm 3 m/s 753 mmHg 74%
05:00 +22°C° 0 mm 4 m/s 753 mmHg 73%
06:00 +22°C° 0 mm 4 m/s 753 mmHg 72%
07:00 +23°C° 0 mm 4 m/s 753 mmHg 72%
08:00 +26°C° 0 mm 4 m/s 753 mmHg 66%
09:00 +28°C° 0 mm 4 m/s 753 mmHg 61%
10:00 +30°C° 0 mm 3 m/s 753 mmHg 56%
11:00 +30°C° 0 mm 3 m/s 753 mmHg 52%
12:00 +31°C° 0 mm 3 m/s 752 mmHg 49%
13:00 +33°C° 0 mm 3 m/s 752 mmHg 46%
14:00 +33°C° 0 mm 3 m/s 752 mmHg 47%
15:00 +33°C° 0 mm 3 m/s 751 mmHg 48%
16:00 +31°C° 0 mm 3 m/s 751 mmHg 49%
17:00 +30°C° 0 mm 2 m/s 751 mmHg 53%
18:00 +28°C° 0 mm 1 m/s 751 mmHg 58%
19:00 +26°C° 0 mm 1 m/s 751 mmHg 62%
20:00 +26°C° 0.1 mm 1 m/s 751 mmHg 63%
21:00 +25°C° 0.1 mm 2 m/s 751 mmHg 65%
22:00 +24°C° 0.1 mm 2 m/s 752 mmHg 66%
23:00 +24°C° 0 mm 2 m/s 751 mmHg 68%

9 Agosto, Domingo

Tempo Temperatura Precipitação Vento Pressão Humidade
00:00 +23°C° 0 mm 2 m/s 751 mmHg 70%
01:00 +21°C° 0 mm 3 m/s 751 mmHg 72%
02:00 +21°C° 0 mm 3 m/s 751 mmHg 73%
03:00 +20°C° 0 mm 3 m/s 751 mmHg 74%
04:00 +19°C° 0 mm 3 m/s 751 mmHg 74%
05:00 +20°C° 0 mm 3 m/s 751 mmHg 73%
06:00 +21°C° 0 mm 3 m/s 751 mmHg 71%
07:00 +22°C° 0 mm 4 m/s 751 mmHg 70%
08:00 +25°C° 0 mm 4 m/s 751 mmHg 64%
09:00 +27°C° 0 mm 4 m/s 751 mmHg 59%
10:00 +28°C° 0 mm 4 m/s 751 mmHg 54%
11:00 +29°C° 0 mm 4 m/s 751 mmHg 50%
12:00 +30°C° 0 mm 4 m/s 751 mmHg 47%
13:00 +32°C° 0 mm 4 m/s 750 mmHg 44%
14:00 +31°C° 0 mm 3 m/s 750 mmHg 45%
15:00 +30°C° 0 mm 3 m/s 750 mmHg 45%
16:00 +30°C° 0 mm 3 m/s 750 mmHg 46%
17:00 +28°C° 0 mm 2 m/s 750 mmHg 52%
18:00 +27°C° 0 mm 2 m/s 750 mmHg 57%
19:00 +25°C° 0 mm 2 m/s 750 mmHg 63%
20:00 +24°C° 0 mm 2 m/s 750 mmHg 63%
21:00 +24°C° 0 mm 2 m/s 750 mmHg 64%
22:00 +23°C° 0 mm 2 m/s 750 mmHg 64%
23:00 +23°C° 0 mm 2 m/s 750 mmHg 68%

10 Agosto, Segunda-feira

Tempo Temperatura Precipitação Vento Pressão Humidade
00:00 +21°C° 0 mm 2 m/s 750 mmHg 72%
01:00 +20°C° 0 mm 2 m/s 750 mmHg 76%
02:00 +20°C° 0 mm 2 m/s 750 mmHg 79%
03:00 +19°C° 0 mm 2 m/s 750 mmHg 82%
04:00 +19°C° 0 mm 2 m/s 750 mmHg 85%
05:00 +20°C° 0 mm 3 m/s 750 mmHg 82%
06:00 +21°C° 0 mm 3 m/s 750 mmHg 79%
07:00 +22°C° 0 mm 3 m/s 750 mmHg 76%
08:00 +25°C° 0 mm 3 m/s 750 mmHg 70%
09:00 +26°C° 0 mm 3 m/s 750 mmHg 64%
10:00 +28°C° 0 mm 3 m/s 750 mmHg 59%
11:00 +29°C° 0 mm 3 m/s 750 mmHg 56%
12:00 +29°C° 0 mm 3 m/s 750 mmHg 52%
13:00 +30°C° 0 mm 3 m/s 749 mmHg 49%
14:00 +30°C° 0 mm 3 m/s 749 mmHg 49%
15:00 +30°C° 0 mm 3 m/s 749 mmHg 49%
16:00 +30°C° 0 mm 3 m/s 749 mmHg 49%
17:00 +29°C° 0 mm 3 m/s 749 mmHg 54%
18:00 +27°C° 0 mm 3 m/s 749 mmHg 59%
19:00 +25°C° 0 mm 2 m/s 749 mmHg 64%
20:00 +24°C° 0 mm 2 m/s 750 mmHg 68%
21:00 +22°C° 0 mm 3 m/s 750 mmHg 71%
22:00 +21°C° 0 mm 3 m/s 750 mmHg 75%
23:00 +20°C° 0 mm 3 m/s 750 mmHg 78%
Mostrar mais